date,time,DOY,Ta_1_1_1,Pa_1_1_1,RH_1_1_1,LWin_1_1_1,LWout_1_1_1,SWin_1_1_1,SWout_1_1_1,PPFD_1_1_1,MWS_1_1_1,WD_1_1_1,SWC_1_1_1,Ts_1_1_1
[yyyy-mm-dd],[HH:MM],[ddd.ddd],[K],[Pa],[%],[W+1m-2],[W+1m-2],[W+1m-2],[W+1m-2],[µmol+1m-2s-1],[m+1s-1],[deg],[m+3m-3],[K]
2018-10-29,00:30,302.020,276.85999999999990,94265.733333333337,87.012333333333331,333.81933333333342,332.51933333333335,0.26533333333333331,-0.15300000000000005,-4.00000000000000008E-003,2.8999999999999990,265.75533333333334,0.29999999999999999,279.51400000000001
2018-10-29,01:00,302.041,276.85999999999990,94284.933333333334,87.675666666666658,333.71833333333348,332.48033333333325,0.30933333333333329,-0.32133333333333330,2.00000000000000004E-003,2.3433333333333333,253.55533333333332,0.29999999999999999,279.48433333333327
2018-10-29,01:30,302.062,276.78200000000015,94297.733333333337,88.380000000000010,333.13600000000002,332.10599999999994,0.42599999999999988,-0.49966666666666654,1.00000000000000002E-003,2.9766666666666666,262.07766666666669,0.30599999999999988,279.45633333333336
2018-10-29,02:00,302.083,276.66233333333327,94314.066666666666,89.353333333333325,332.65066666666667,331.72499999999997,0.13133333333333339,-0.22500000000000003,-2.00000000000000004E-003,3.3166666666666678,249.90000000000001,0.30266666666666669,279.42833333333334
2018-10-29,02:30,302.104,276.56800000000010,94314.600000000006,89.857000000000042,332.30833333333334,331.37899999999991,6.00000000000000255E-002,-0.21066666666666667,2.00000000000000004E-003,2.0166666666666666,181.95600000000002,0.29999999999999999,279.40566666666666
2018-10-29,03:00,302.124,276.56000000000017,94326.866666666669,90.044666666666672,332.27000000000004,331.30433333333332,0.13300000000000009,-0.11266666666666671,-1.00000000000000002E-003,2.6066666666666665,260.46600000000001,0.29999999999999999,279.38233333333329
2018-10-29,03:30,302.145,276.57433333333341,94331.100000000006,90.198000000000064,332.42933333333332,331.54099999999994,9.73333333333333967E-002,-8.13333333333333824E-002,4.00000000000000008E-003,2.1233333333333331,220.75566666666666,0.29999999999999999,279.36399999999992
2018-10-29,04:00,302.166,276.65999999999991,94341.899999999994,90.493333333333297,332.70333333333326,331.91800000000018,9.86666666666667080E-002,-1.66666666666666699E-002,8.00000000000000017E-003,2.3100000000000005,274.68866666666668,0.29999999999999999,279.34033333333338
2018-10-29,04:30,302.187,276.74233333333348,94343.766666666663,90.691333333333375,332.99700000000001,332.33166666666665,7.46666666666667006E-002,-1.20000000000000037E-002,8.00000000000000017E-003,1.9200000000000006,204.45600000000002,0.29999999999999999,279.32933333333330
2018-10-29,05:00,302.208,276.84766666666656,94339.899999999994,90.859000000000023,333.49300000000005,332.90300000000008,8.20000000000000451E-002,3.33333333333333355E-003,8.00000000000000017E-003,2.6400000000000006,228.97766666666666,0.29999999999999999,279.31100000000009
2018-10-29,05:30,302.229,276.92900000000009,94346.100000000006,90.957666666666682,333.94266666666670,333.36000000000001,7.46666666666667006E-002,-3.06666666666666719E-002,8.00000000000000017E-003,2.5566666666666666,230.48900000000000,0.29999999999999999,279.29466666666673
2018-10-29,06:00,302.249,277.01666666666682,94354.133333333331,90.980000000000004,334.40666666666664,333.79466666666667,9.20000000000000262E-002,-1.06666666666666680E-002,7.00000000000000015E-003,2.9199999999999995,261.42233333333331,0.29999999999999999,279.29200000000003
2018-10-29,06:30,302.270,277.16099999999994,94370.233333333337,90.660000000000011,335.08566666666667,334.50433333333331,0.12033333333333339,-4.66666666666666757E-002,-1.00000000000000002E-003,3.9166666666666670,221.60100000000003,0.29999999999999999,279.28233333333338
2018-10-29,07:00,302.291,277.19799999999998,94389.300000000003,89.974000000000018,335.16466666666662,334.28966666666662,0.10466666666666673,-0.14533333333333334,8.00000000000000017E-003,4.5900000000000007,259.68900000000002,0.30666666666666653,279.27733333333333
2018-10-29,07:30,302.312,277.13433333333330,94412.566666666666,88.240000000000009,334.62200000000007,332.08299999999991,6.13333333333333577E-002,-0.28699999999999998,6.00000000000000012E-003,5.4599999999999982,272.14466666666669,0.30999999999999989,279.26933333333346
2018-10-29,08:00,302.333,276.80200000000002,94442.566666666666,87.786333333333332,332.95100000000002,330.17633333333345,5.33333333333333316E-003,-0.41999999999999987,2.00000000000000004E-003,5.0233333333333325,259.24366666666663,0.30999999999999989,279.25700000000012
2018-10-29,08:30,302.354,276.59333333333348,94462.933333333334,87.198000000000008,331.94500000000005,329.22166666666664,5.46666666666666759E-002,-0.47633333333333322,1.00000000000000002E-003,5.6866666666666674,237.35466666666665,0.30999999999999989,279.24533333333329
2018-10-29,09:00,302.374,276.41099999999989,94471.666666666672,88.190666666666672,331.29533333333342,328.92533333333330,8.13333333333333824E-002,-0.34733333333333327,6.00000000000000012E-003,4.6766666666666659,235.25600000000000,0.30999999999999989,279.23166666666668
2018-10-29,09:30,302.395,276.28633333333346,94502.633333333331,88.219333333333282,330.72999999999985,328.16133333333340,8.00000000000000433E-002,-0.36766666666666664,2.00000000000000004E-003,4.2966666666666677,214.84433333333334,0.30999999999999989,279.21133333333330
2018-10-29,10:00,302.416,276.14333333333337,94528.533333333340,87.105333333333334,329.87300000000010,326.58833333333325,0.10200000000000004,-0.57433333333333325,-1.00000000000000002E-003,4.8099999999999996,244.31066666666666,0.30999999999999989,279.18666666666661
2018-10-29,10:30,302.437,275.96800000000002,94559.199999999997,87.939999999999984,329.21300000000002,326.46666666666664,0.12066666666666671,-0.32266666666666655,3.00000000000000006E-003,3.7566666666666668,247.87800000000001,0.30999999999999989,279.16399999999999
2018-10-29,11:00,302.458,275.85966666666656,94587.566666666666,88.542000000000002,328.82600000000002,326.50033333333329,8.70000000000000356E-002,-0.24600000000000002,-5.00000000000000010E-003,4.2766666666666673,250.91166666666669,0.30999999999999989,279.14133333333336
2018-10-29,11:30,302.479,275.76000000000016,94598.766666666663,89.620666666666679,328.46566666666672,326.94399999999990,5.00000000000000028E-002,-8.13333333333333547E-002,6.66666666666666753E-004,3.7866666666666671,220.01133333333334,0.30999999999999989,279.11466666666661
2018-10-29,12:00,302.499,275.83766666666651,94631.100000000006,90.031333333333322,328.54499999999996,327.34533333333331,3.33333333333333398E-002,-2.00000000000000039E-002,1.50000000000000029E-002,4.4766666666666657,212.62166666666664,0.30999999999999989,279.09133333333335
2018-10-29,12:30,302.520,275.85999999999990,94654.633333333331,90.261000000000010,328.76799999999997,327.65966666666662,5.66666666666667054E-002,7.90000000000000008E-002,0.21600000000000000,4.1899999999999995,263.41133333333335,0.30999999999999989,279.06800000000004
2018-10-29,13:00,302.541,275.94133333333338,94658.233333333337,90.487666666666669,329.05366666666669,327.98700000000002,0.40900000000000003,3.4613333333333336,8.0363333333333333,3.3033333333333332,237.96766666666664,0.30999999999999989,279.04733333333337
2018-10-29,13:30,302.562,276.00233333333352,94678.933333333334,90.603666666666626,329.66100000000000,328.43399999999997,1.5043333333333331,14.973000000000003,31.664000000000001,3.1666666666666665,272.08900000000000,0.30999999999999989,279.02500000000015
2018-10-29,14:00,302.583,276.04000000000019,94703.233333333337,90.655666666666633,330.27266666666668,328.71266666666668,2.4993333333333330,27.560666666666673,56.907333333333327,3.0766666666666671,282.76666666666665,0.30999999999999989,279.01333333333343
2018-10-29,14:30,302.604,276.17433333333332,94750.566666666666,90.643333333333274,331.27899999999994,329.78566666666671,4.2893333333333326,46.553333333333349,95.960666666666668,3.0233333333333330,262.55566666666670,0.30999999999999989,279.00933333333342
2018-10-29,15:00,302.624,276.26433333333347,94792.766666666663,90.607666666666645,332.19166666666661,330.25533333333334,5.0609999999999991,56.005000000000003,117.70866666666670,3.3800000000000008,251.03433333333334,0.30999999999999989,279.01066666666679
2018-10-29,15:30,302.645,276.30866666666662,94811.066666666666,90.364666666666693,332.63766666666669,331.22233333333332,5.5326666666666666,61.691000000000010,137.14633333333330,3.1699999999999999,220.71133333333333,0.30999999999999989,279.02266666666668
2018-10-29,16:00,302.666,276.34633333333329,94816.666666666672,90.229999999999990,333.16433333333333,331.88933333333335,5.8966666666666656,67.133666666666670,147.89399999999998,2.9166666666666665,209.23333333333332,0.30999999999999989,279.04066666666671
2018-10-29,16:30,302.687,276.10566666666688,94845.500000000000,90.181000000000026,331.46666666666675,330.40166666666676,5.7916666666666670,63.712666666666657,145.16133333333335,3.6566666666666658,212.94433333333333,0.30999999999999989,279.05800000000005
2018-10-29,17:00,302.708,276.15899999999993,94834.533333333340,90.378666666666689,332.76466666666670,331.48666666666662,9.1259999999999994,102.02933333333335,223.51666666666668,3.3666666666666654,257.76599999999996,0.30999999999999989,279.08299999999997
2018-10-29,17:30,302.729,276.42800000000000,94821.433333333334,90.352000000000004,335.79699999999991,334.24666666666667,15.128333333333334,168.66666666666669,355.08133333333342,2.7633333333333336,208.37800000000001,0.30999999999999989,279.10699999999997
2018-10-29,18:00,302.749,276.64099999999996,94795.300000000003,88.102000000000004,337.66766666666661,335.88966666666664,15.626333333333333,171.77699999999999,371.01066666666662,0.93666666666666687,74.376999999999995,0.30999999999999989,279.14233333333323
2018-10-29,18:30,302.770,276.90600000000006,94779.666666666672,85.683999999999983,339.03533333333331,337.29733333333331,15.231999999999999,165.42166666666665,352.87299999999993,1.4366666666666668,172.14433333333332,0.30999999999999989,279.19899999999996
2018-10-29,19:00,302.791,277.09666666666675,94787.333333333328,82.950333333333319,338.66233333333315,336.92033333333336,10.966333333333331,119.41433333333333,261.25099999999998,1.8833333333333331,249.88933333333335,0.30999999999999989,279.25733333333341
2018-10-29,19:30,302.812,277.21100000000007,94791.433333333334,83.247666666666674,337.56666666666666,335.68166666666662,5.8716666666666661,62.223999999999975,141.22999999999999,0.86000000000000021,230.69000000000003,0.30999999999999989,279.31466666666671
2018-10-29,20:00,302.833,277.26333333333349,94781.566666666666,82.103666666666669,337.79033333333325,335.54766666666660,7.1006666666666662,71.033333333333331,156.65566666666666,1.1699999999999997,122.88933333333334,0.30999999999999989,279.36233333333337
2018-10-29,20:30,302.854,277.41800000000001,94763.133333333331,81.901333333333312,338.52200000000005,336.13133333333332,7.3110000000000026,71.360999999999976,153.54233333333332,1.0466666666666666,51.711333333333336,0.30999999999999989,279.40133333333330
2018-10-29,21:00,302.874,277.49766666666682,94755.566666666666,80.333666666666659,337.90800000000013,335.51533333333339,4.4976666666666656,41.216999999999992,89.436999999999969,1.2066666666666670,62.433333333333344,0.30999999999999989,279.43966666666671
2018-10-29,21:30,302.895,277.49366666666668,94759.899999999994,81.737666666666684,337.31933333333330,335.09566666666677,3.0919999999999996,27.428333333333338,60.175333333333349,1.2666666666666671,97.655333333333331,0.30999999999999989,279.46699999999993
2018-10-29,22:00,302.916,277.46000000000004,94753.300000000003,83.105666666666650,337.24799999999988,335.03733333333332,3.1266666666666674,26.699666666666666,55.851666666666667,1.4766666666666663,83.044333333333327,0.30999999999999989,279.48866666666669
2018-10-29,22:30,302.937,277.48100000000005,94737.266666666663,82.514666666666656,336.98066666666665,334.64599999999996,3.1210000000000009,23.333666666666669,43.539333333333339,1.5933333333333335,62.811000000000007,0.30999999999999989,279.49733333333336
2018-10-29,23:00,302.958,277.52366666666677,94729.100000000006,81.170000000000002,336.46366666666660,334.25266666666664,1.7140000000000002,8.4019999999999992,11.639666666666669,1.3866666666666669,77.388666666666666,0.30999999999999989,279.50933333333342
2018-10-29,23:30,302.979,277.45666666666671,94736.333333333328,82.345666666666659,335.75266666666664,333.74399999999991,0.65966666666666662,-8.76666666666666844E-002,0.18699999999999997,1.8333333333333330,86.033333333333317,0.30999999999999989,279.51100000000008
2018-10-30,00:00,303.000,277.49133333333333,94751.466666666660,81.080999999999989,335.46166666666676,333.48566666666682,0.82000000000000006,-6.83333333333333015E-002,1.06666666666666680E-002,1.7166666666666672,99.331999999999979,0.30999999999999989,279.50100000000003
